Regional Weather Roundup
Issued by NWS Little Rock, AR

Home | Current Version | Previous Version | Graphics & Text | Print | Product List | Glossary On
Versions: 1 2 3 4 5 6 7 8 9 10 11 12 13 14 15 16 17 18 19 20 21 22 23 24 25 26 27 28 29 30 31 32 33 34 35 36 37 38 39 40 41 42 43 44 45
000
ASUS44 KLZK 240605
RWRLZK

WEATHER ROUNDUP FOR ARKANSAS
NATIONAL WEATHER SERVICE LITTLE ROCK AR
1200 AM CST WED DEC 24 2014

NOTE: "FAIR" INDICATES FEW OR NO CLOUDS BELOW 12,000 FEET WITH NO
SIGNIFICANT WEATHER AND/OR OBSTRUCTIONS TO VISIBILITY.

ARZ001-003-010-029-240700-
NORTHWEST ARKANSAS

CITY           SKY/WX    TMP DP  RH WIND       PRES   REMARKS
FAYETTEVILLE   CLOUDY    37  30  75 NW7       29.82R
6HR MIN TEMP:  36; 6HR MAX TEMP:  40;

FORT SMITH     CLOUDY    42  30  62 NW6       29.84S
6HR MIN TEMP:  42; 6HR MAX TEMP:  47;

HARRISON       CLOUDY    37  32  82 NW8       29.78S
6HR MIN TEMP:  37; 6HR MAX TEMP:  41;

BENTONVILLE    CLOUDY    37  28  70 NW5       29.82R
6HR MIN TEMP:  37; 6HR MAX TEMP:  39;

ROGERS         CLOUDY    36  30  79 W6        29.81F
6HR MIN TEMP:  36; 6HR MAX TEMP:  39;

SILOAM SPGS    CLOUDY    37  27  65 NW6       29.83S
6HR MIN TEMP:  37; 6HR MAX TEMP:  39;

HIGHFILL       CLOUDY    37  31  78 NW6       29.81F
6HR MIN TEMP:  37; 6HR MAX TEMP:  40;

$$

ARZ004-005-016-240700-
NORTH CENTRAL ARKANSAS

CITY           SKY/WX    TMP DP  RH WIND       PRES   REMARKS
BATESVILLE     CLOUDY    45  36  70 W9G16     29.75S
6HR MIN TEMP:  45; 6HR MAX TEMP:  46;

FLIPPIN        FAIR      37  30  75 NW5       29.76S
6HR MIN TEMP:  37; 6HR MAX TEMP:  45;

MTN HOME       FAIR      37  33  85 NW5       29.75S
6HR MIN TEMP:  37; 6HR MAX TEMP:  44;

$$

ARZ040-041-240700-
WEST CENTRAL ARKANSAS

CITY           SKY/WX    TMP DP  RH WIND       PRES   REMARKS
MENA           MOCLDY    41  32  70 W6        29.82S
MOUNT IDA      MOCLDY    38  34  85 NW3       29.77F
6HR MIN TEMP:  37; 6HR MAX TEMP:  47;

$$

ARZ009-017-025-026-028-240700-
NORTHEAST ARKANSAS

CITY           SKY/WX    TMP DP  RH WIND       PRES   REMARKS
CORNING        CLOUDY    46  43  87 NW6       29.72S
JONESBORO      CLOUDY    46  42  86 W7        29.72R
6HR MIN TEMP:  46; 6HR MAX TEMP:  48; 6HR PCP: TRACE;

NEWPORT        CLOUDY    46  42  86 NW13      29.74S
6HR MIN TEMP:  45; 6HR MAX TEMP:  48; 6HR PCP: TRACE;

WALNUT RIDGE   CLOUDY    46  39  76 W6        29.71S
6HR MIN TEMP:  45; 6HR MAX TEMP:  46;

BLYTHEVILLE    CLOUDY    47  45  93 NW13      29.70R
6HR MIN TEMP:  47; 6HR MAX TEMP:  49;

$$

ARZ022-023-033-042-044-240700-
CENTRAL ARKANSAS

CITY           SKY/WX    TMP DP  RH WIND       PRES   REMARKS
LITTLE ROCK    CLOUDY    47  40  76 NW9       29.77S
6HR MIN TEMP:  47; 6HR MAX TEMP:  49; 6HR PCP: TRACE;

N LITTLE ROCK  CLOUDY    44  42  92 NW6       29.77S
6HR MIN TEMP:  44; 6HR MAX TEMP:  46;

JACKSONVILLE   CLOUDY    46  39  77 NW8       29.76F
6HR MIN TEMP:  46; 6HR MAX TEMP:  47; 6HR PCP: TRACE;

SEARCY         CLOUDY    46  40  79 NW7       29.76F
6HR MIN TEMP:  45; 6HR MAX TEMP:  48; 6HR PCP: TRACE;

HOT SPRINGS    FAIR      40  36  86 W3        29.78F
6HR MIN TEMP:  40; 6HR MAX TEMP:  47;

RUSSELLVILLE   MOCLDY    42  34  73 W6        29.79R
6HR MIN TEMP:  41; 6HR MAX TEMP:  47;

CLINTON        CLOUDY    41  36  81 W3        29.78F
$$

ARZ036-240700-
EAST ARKANSAS

CITY           SKY/WX    TMP DP  RH WIND       PRES   REMARKS
WEST MEMPHIS   CLOUDY    47  45  93 NW6       29.69S
6HR MIN TEMP:  47; 6HR MAX TEMP:  49;

$$

ARZ050-053-066-070-073-240700-
SOUTHWEST ARKANSAS

CITY           SKY/WX    TMP DP  RH WIND       PRES   REMARKS
ARKADELPHIA    MOCLDY    44  40  86 NW7       29.78F
6HR MIN TEMP:  44; 6HR MAX TEMP:  47;

CAMDEN         CLOUDY    45  39  81 MISG      29.78F
TEXARKANA      CLOUDY    44  36  73 NW10      29.82F
6HR MIN TEMP:  44; 6HR MAX TEMP:  48;

EL DORADO      CLOUDY    46  40  79 NW8       29.77F
6HR MIN TEMP:  46; 6HR MAX TEMP:  47;

DE QUEEN       CLOUDY    42  33  70 NW7       29.84S
6HR MIN TEMP:  42; 6HR MAX TEMP:  49;

$$

ARZ056-057-069-240700-
SOUTHEAST ARKANSAS

CITY           SKY/WX    TMP DP  RH WIND       PRES   REMARKS
PINE BLUFF     CLOUDY    47  39  74 NW12      29.75F
6HR MIN TEMP:  47; 6HR MAX TEMP:  48;

STUTTGART      CLOUDY    46  41  81 NW13      29.74F
6HR MIN TEMP:  46; 6HR MAX TEMP:  48;

MONTICELLO     CLOUDY    48  41  76 NW9       29.71F
6HR MIN TEMP:  48; 6HR MAX TEMP:  50;


$$




USA.gov is the U.S. government's official web portal to all federal, state and local government web resources and services.